SCP
0 0 0 0 0 0 0 0 0 0 0 0 0 0 0 0 0 0 0 0 0 0 0 0 0 0 0 0 0 0 0 0 0 0 0 0 0 0 0 0 0 0 0
0 0 0 0 0 0 0 0 0 0 0 0 0 0 0 0 0 0 0 0 0 0 0 0 0 0 0 0 0 0 0 0 0 0 0 0 0 0 0 0 0 0 0
0 0 0 0 0 0 0 0 0 0 0 0 0 0 0 0 0 0 0 0 0 0 0 0 0 0 0 0 0 0 0 0 0 0 0 0 0 0 0 0 0 0 0
0 0 0 0 0 0 0 0 0 0 0 0 0 0 0 0 0 0 0 0 0 0 0 0 0 0 0 0 0 0 0 0 0 0 0 0 0 0 0 0 0 0 0
0 0 0 0 0 0 0 0 0 0 0 0 0 0 0 0 0 0 0 0 0 0 0 0 0 0 0 0 0 0 0 0 0 0 0 0 0 0 0 0 0 0 0
0 0 0 0 0 0 0 0 0 0 0 0 0 0 0 0 0 0 0 0 0 0 0 0 0 0 0 0 0 0 0 0 0 0 0 0 0 0 0 0 0 0 0
0 0 0 0 0 0 0 0 0 0 0 0 0 0 0 0 0 0 0 0 0 0 0 0 0 0 0 0 0 0 0 0 0 0 0 0 0 0 0 0 0 0 0
0 0 0 0 0 0 0 0 0 0 0 0 0 0 0 0 0 0 0 0 0 0 0 0 0 0 0 0 0 0 0 0 0 0 0 0 0 0 0 0 0 0 0
0 0 0 0 0 0 0 0 0 0 0 0 0 0 0 0 0 0 0 0 0 0 0 0 0 0 0 0 0 0 0 0 0 0 0 0 0 0 0 0 0 0 0
0 0 0 0 0 0 0 0 0 0 0 0 0 0 0 0 0 0 0 0 0 0 0 0 0 0 0 0 0 0 0 0 0 0 0 0 0 0 0 0 0 0 0
0 0 0 0 0 0 0 0 0 0 0 0 0 0 0 0 0 0 0 0 0 0 0 0 0 0 0 0 0 0 0 0 0 0 0 0 0 0 0 0 0 0 0
0 0 0 0 0 0 0 0 0 0 0 0 0 0 0 0 0 0 0 0 0 0 0 0 0 0 0 0 0 0 0 0 0 0 0 0 0 0 0 0 0 0 0
0 0 0 0 0 0 0 0 0 0 0 0 0 0 0 0 0 0 0 0 0 0 0 0 0 0 0 0 0 0 0 0 0 0 0 0 0 0 0 0 0 0 0
0 0 0 0 0 0 0 0 0 0 0 0 0 0 0 0 0 0 0 0 0 0 0 0 0 0 0 0 0 0 0 0 0 0 0 0 0 0 0 0 0 0 0
0 0 0 0 0 0 0 0 0 0 0 0 0 0 0 0 0 0 0 0 0 0 0 0 0 0 0 0 0 0 0 0 0 0 0 0 0 0 0 0 0 0 0
0 0 0 0 0 0 0 0 0 0 0 0 0 0 0 0 0 0 0 0 0 0 0 0 0 0 0 0 0 0 0 0 0 0 0 0 0 0 0 0 0 0 0
0 0 0 0 0 0 0 0 0 0 0 0 0 0 0 0 0 0 0 0 0 0 0 0 0 0 0 0 0 0 0 0 0 0 0 0 0 0 0 0 0 0 0
0 0 0 0 0 0 0 0 0 0 0 0 0 0 0 0 0 0 0 0 0 0 0 0 0 0 0 0 0 0 0 0 0 0 0 0 0 0 0 0 0 0 0
0 0 0 0 0 0 0 0 0 0 0 0 0 0 0 0 0 0 0 0 0 0 0 0 0 0 0 0 0 0 0 0 0 0 0 0 0 0 0 0 0 0 0
0 0 0 0 0 0 0 0 0 0 0 0 0 0 0 0 0 0 0 0 0 0 0 0 0 0 0 0 0 0 0 0 0 0 0 0 0 0 0 0 0 0 0
0 0 0 0 0 0 0 0 0 0 0 0 0 0 0 0 0 0 0 0 0 0 0 0 0 0 0 0 0 0 0 0 0 0 0 0 0 0 0 0 0 0 0
0 0 0 0 0 0 0 0 0 0 0 0 0 0 0 0 0 0 0 0 0 0 0 0 0 0 0 0 0 0 0 0 0 0 0 0 0 0 0 0 0 0 0
0 0 0 0 0 0 0 0 0 0 0 0 0 0 0 0 0 0 0 0 0 0 0 0 0 0 0 0 0 0 0 0 0 0 0 0 0 0 0 0 0 0 0
0 0 0 0 0 0 0 0 0 0 0 0 0 0 0 0 0 0 0 0 0 0 0 0 0 0 0 0 0 0 0 0 0 0 0 0 0 0 0 0 0 0 0
0 0 0 0 0 0 0 0 0 0 0 0 0 0 0 0 0 0 0 0 0 0 0 0 0 0 0 0 0 0 0 0 0 0 0 0 0 0 0 0 0 0 0
0 0 0 0 0 0 0 0 0 0 0 0 0 0 0 0 0 0 0 0 0 0 0 0 0 0 0 0 0 0 0 0 0 0 0 0 0 0 0 0 0 0 0
Wind_Speed
7 6 6 5 5 5 4 4 4 3 3 2 2 2 2 3 3 3 4 4 5 5 5 5 7 6 5 5 5 5 6 6 11 8 5 6 8 10 11 9 10 9 10
7 7 6 6 5 5 4 4 4 3 3 3 2 3 3 4 4 4 5 5 5 6 6 6 7 6 6 6 5 6 7 7 8 13 8 6 8 9 10 11 11 10 8
7 7 7 6 6 5 5 4 3 3 3 3 3 4 4 5 5 5 6 6 6 7 7 7 8 7 8 6 7 7 7 8 7 10 11 7 7 7 8 9 10 9 10
8 8 7 7 6 6 5 4 4 3 3 4 4 4 5 5 6 6 6 7 7 8 8 8 8 8 9 8 7 8 8 8 8 10 10 8 7 6 6 7 8 6 8
9 8 7 6 5 5 4 4 4 4 4 4 4 5 5 5 6 7 7 8 8 8 8 8 9 11 14 12 10 8 8 7 7 9 10 9 7 5 6 6 9 8 8
9 8 6 6 5 5 4 4 3 4 4 4 5 5 6 6 11 15 12 7 7 8 8 8 9 11 15 19 21 20 16 11 9 9 10 10 10 8 7 8 9 10 9
8 7 6 6 5 5 4 4 4 4 4 5 6 6 7 10 15 17 18 10 7 7 8 8 8 9 14 8 15 20 19 22 21 14 12 12 11 9 10 11 10 12 11
7 6 6 6 5 4 4 4 5 4 4 5 6 7 7 10 16 18 19 11 7 8 8 9 9 9 10 11 10 10 11 12 15 11 11 12 12 11 11 13 13 12 9
7 7 6 6 5 4 5 5 4 4 5 6 6 7 8 11 16 18 19 7 7 8 9 9 10 10 17 21 14 11 11 10 16 21 22 21 23 23 17 9 8 8 9
7 6 5 5 5 5 6 5 4 4 6 6 7 7 8 9 15 19 19 6 7 8 7 9 16 17 20 22 13 10 13 11 9 11 13 15 14 14 18 10 7 8 8
5 4 4 4 5 5 4 4 4 5 5 6 8 8 8 11 14 18 19 8 7 8 7 6 8 19 22 23 20 12 15 16 9 8 8 7 7 6 7 7 6 7 8
4 4 4 4 3 3 4 5 5 5 6 7 7 8 7 8 12 15 19 18 17 10 8 6 9 20 23 24 18 17 23 20 7 6 6 6 6 6 6 6 7 7 7
3 3 3 3 4 4 4 5 5 4 5 6 6 8 8 6 9 18 20 21 22 13 9 17 21 24 22 15 17 22 18 7 5 7 7 7 5 5 5 4 5 6 7
3 3 3 3 4 4 4 4 5 5 6 6 7 8 8 7 6 7 8 10 15 13 11 15 22 22 17 16 15 11 6 6 7 7 7 6 4 4 4 4 4 4 5
3 3 3 4 4 5 5 5 6 7 8 8 7 8 9 10 11 17 14 8 7 9 11 8 7 6 6 6 6 6 6 6 6 5 6 6 5 5 5 4 4 4 5
3 4 3 4 4 4 5 6 11 13 17 19 20 17 13 18 24 25 24 24 25 24 17 8 7 6 7 7 7 6 6 6 6 6 6 6 6 5 5 4 4 4 5
4 4 4 4 4 5 5 6 8 10 14 18 20 22 22 23 25 25 25 24 24 22 11 7 7 7 7 7 7 7 7 6 6 6 6 6 6 6 5 5 5 5 5
4 6 6 5 5 5 6 7 7 9 10 8 11 18 22 23 24 23 24 20 12 10 6 7 8 7 7 7 7 7 7 6 6 6 6 6 6 6 6 6 5 5 5
4 4 4 5 5 6 6 7 7 9 10 10 8 10 17 19 21 22 20 9 8 8 7 8 8 7 7 7 7 7 7 7 7 6 6 6 6 6 6 6 5 8 6
4 9 9 6 5 6 6 7 8 9 10 10 10 9 8 10 9 10 8 7 8 9 8 8 8 8 7 7 7 7 7 7 7 6 6 6 6 6 6 7 6 5 5
4 7 12 8 6 7 7 8 8 9 10 10 10 12 18 11 10 9 8 8 8 8 8 8 8 8 7 7 7 7 8 7 7 6 6 6 6 6 5 5 6 5 5
5 5 6 7 7 7 8 8 9 9 10 12 11 12 20 13 9 9 9 9 8 7 8 8 8 7 7 7 7 7 8 8 7 6 7 6 6 6 6 6 6 5 5
6 7 8 8 8 12 12 8 9 10 11 11 12 11 11 10 10 10 10 9 8 8 7 7 8 8 7 7 7 7 8 8 7 7 7 7 6 6 6 6 7 6 6
6 8 9 9 9 9 9 10 10 10 11 11 11 11 11 10 10 11 10 9 8 8 8 8 9 10 12 10 8 7 7 8 8 7 9 9 8 7 7 7 7 7 6
7 8 9 9 9 10 10 11 11 11 11 12 12 11 11 11 10 10 9 9 10 10 10 9 8 9 12 13 11 10 14 19 18 12 9 8 10 9 8 8 7 7 7
7 8 9 9 9 10 10 11 12 12 12 12 12 11 11 11 11 11 10 9 9 9 9 9 10 11 12 11 13 16 20 21 21 21 12 8 9 9 9 8 9 8 8
Wind_Direction
160 155 150 153 151 150 156 167 171 176 182 196 213 231 248 257 256 252 256 261 259 264 261 254 256 255 253 251 244 243 244 245 270 275 254 267 271 276 284 282 281 280 282
162 157 157 155 154 159 170 178 178 186 198 210 224 241 252 255 254 251 260 260 257 261 262 259 260 260 254 251 247 248 250 244 260 280 281 270 262 267 272 275 282 282 276
160 158 159 163 167 175 182 186 188 195 212 225 230 243 253 256 257 254 252 256 254 254 255 256 259 258 261 256 250 252 254 257 253 270 281 274 268 266 272 273 273 275 277
163 165 172 179 181 183 186 191 200 205 218 233 240 246 252 257 259 259 256 256 256 255 253 251 253 251 255 259 259 255 254 257 258 266 277 279 272 262 262 273 280 268 273
167 174 183 180 177 180 190 202 210 219 230 237 248 258 259 259 256 254 251 250 251 256 255 251 251 258 263 268 267 257 251 255 262 270 277 281 276 269 265 266 279 282 274
174 181 176 173 179 190 201 208 219 234 243 245 251 257 263 264 276 282 280 257 250 252 257 257 257 269 276 282 284 284 280 274 270 270 276 277 279 272 272 273 279 284 284
175 175 175 178 188 201 205 212 228 239 243 253 256 256 260 267 281 286 287 283 259 253 254 258 266 267 282 272 278 283 283 281 279 277 276 276 277 274 274 276 272 271 272
173 177 180 183 195 202 209 226 237 238 244 251 256 257 261 271 284 289 292 286 266 258 254 254 259 263 264 272 262 260 258 261 267 271 264 266 266 265 260 266 271 274 272
179 186 188 187 194 205 221 235 239 242 251 252 255 259 262 273 285 291 293 276 265 262 258 257 262 259 270 281 280 272 270 264 272 274 273 275 276 279 280 279 278 283 283
190 191 188 188 196 212 227 239 241 241 252 259 262 259 259 266 281 289 291 275 269 269 263 257 269 275 279 283 279 273 275 274 266 271 274 277 279 280 283 276 270 275 280
177 175 186 196 206 220 232 240 247 253 261 264 268 269 263 266 279 285 288 282 267 271 270 263 258 279 285 286 285 278 278 285 274 268 269 266 262 259 259 256 247 253 265
163 179 199 210 220 224 234 251 252 254 265 271 274 277 267 266 275 280 284 284 285 280 275 269 268 283 285 287 288 285 288 294 286 278 274 268 261 258 256 255 253 249 250
170 197 215 226 232 230 234 250 259 253 258 270 272 278 278 265 267 280 286 288 289 285 274 280 285 289 292 291 287 289 292 288 278 275 273 269 257 253 256 263 266 264 265
193 219 228 237 249 245 240 242 249 254 258 265 270 274 278 273 263 263 266 276 281 281 280 280 286 288 287 286 288 289 278 263 267 268 270 269 263 256 257 257 267 274 277
213 232 243 243 248 257 251 243 248 241 244 260 263 263 276 280 275 281 284 276 268 265 277 271 268 270 267 266 267 267 261 263 271 264 269 274 270 265 265 257 257 263 264
230 245 247 251 254 256 266 277 263 262 272 273 274 274 274 277 288 291 292 292 293 292 291 280 276 273 275 276 277 274 265 260 258 261 266 269 269 266 268 264 257 256 263
234 250 254 253 257 261 263 272 284 284 276 278 279 282 282 286 290 293 294 294 293 294 287 277 274 273 272 271 269 269 268 262 258 258 261 262 263 263 263 264 263 260 260
243 257 262 253 255 259 262 265 271 281 290 282 277 280 285 288 290 292 294 297 291 285 265 268 270 269 268 267 267 267 266 263 259 254 253 255 255 258 261 261 259 255 258
252 256 256 255 256 258 262 266 269 272 278 284 283 280 283 287 289 289 291 282 278 276 270 267 266 265 265 264 264 264 261 261 258 253 252 250 249 251 256 257 257 262 260
257 273 279 271 263 265 265 268 271 274 277 280 282 283 284 284 279 278 271 262 267 271 271 269 266 263 262 262 262 262 262 259 256 252 251 248 245 245 250 251 252 252 250
263 274 283 282 270 270 270 270 271 273 275 278 279 281 285 283 279 277 273 267 266 269 270 269 269 267 262 259 258 258 259 261 256 250 249 247 242 244 244 245 247 247 246
267 270 270 270 273 272 273 270 271 274 276 278 281 284 288 284 278 277 274 272 267 265 264 265 266 263 259 257 258 259 259 260 256 249 247 244 239 240 240 241 243 241 237
268 273 276 275 274 280 283 276 274 275 277 279 281 282 281 276 275 274 273 271 268 267 263 261 264 264 257 253 251 252 256 258 256 251 249 247 240 238 238 239 237 235 233
269 273 277 280 279 277 278 279 277 277 278 280 280 280 278 276 275 275 274 272 270 269 265 260 259 261 261 260 257 251 249 252 252 251 248 246 240 238 236 236 234 233 231
274 277 279 280 281 281 281 281 281 280 280 280 280 280 279 278 277 276 274 271 269 269 267 263 262 263 263 261 259 256 260 264 266 260 246 240 238 234 232 233 231 229 226
280 282 283 282 281 280 281 282 282 281 280 280 280 279 279 278 277 277 275 272 270 270 269 266 262 260 260 262 263 264 268 269 268 266 257 243 235 231 226 228 226 226 224